When you browse on this site, cookies collect data to enhance your experience and personalize the content and advertising you see.
Visit our Privacy Policy to learn more. By continuing to use the site, you agree to this use of cookies and data.
  • In France
  • List of Countries
  • For 7 days
  • Water Temperature
  • Satellite Maps
  • Weather Map
  • Weather Widgets
  • user-avatar
    Login

    Hourly Weather Shkoder

    Today, 23 January, Wednesday

    Time Temperature Precipitation Wind Pressure Humidity
    00:00 +7°C° 0.7 mm 2 mps 730 mmHg 93%
    01:00 +7°C° 0 mm 2 mps 730 mmHg 94%
    02:00 +6°C° 0.7 mm 2 mps 729 mmHg 94%
    03:00 +6°C° 0.7 mm 2 mps 729 mmHg 94%
    04:00 +6°C° 0.7 mm 2 mps 729 mmHg 94%
    05:00 +6°C° 0.7 mm 2 mps 729 mmHg 93%
    06:00 +6°C° 0.7 mm 2 mps 729 mmHg 91%
    07:00 +6°C° 0.7 mm 2 mps 728 mmHg 90%
    08:00 +7°C° 0.3 mm 2 mps 728 mmHg 87%
    09:00 +7°C° 0.3 mm 2 mps 728 mmHg 84%
    10:00 +8°C° 0.3 mm 2 mps 728 mmHg 81%
    11:00 +9°C° 0.1 mm 2 mps 728 mmHg 78%
    12:00 +9°C° 0.1 mm 2 mps 727 mmHg 76%
    13:00 +9°C° 0.1 mm 2 mps 727 mmHg 73%
    14:00 +9°C° 0 mm 2 mps 726 mmHg 74%
    15:00 +10°C° 0 mm 1 mps 725 mmHg 76%
    16:00 +8°C° 0 mm 0 mps 725 mmHg 77%
    17:00 +8°C° 0 mm 1 mps 725 mmHg 78%
    18:00 +8°C° 0 mm 1 mps 724 mmHg 79%
    19:00 +6°C° 0 mm 2 mps 724 mmHg 80%
    20:00 +6°C° 0 mm 2 mps 724 mmHg 80%
    21:00 +6°C° 0 mm 2 mps 724 mmHg 79%
    22:00 +6°C° 0 mm 2 mps 724 mmHg 79%
    23:00 +6°C° 0.1 mm 2 mps 723 mmHg 79%

    Tomorrow, 24 January, Thursday

    Time Temperature Precipitation Wind Pressure Humidity
    00:00 +6°C° 0.1 mm 2 mps 723 mmHg 79%
    01:00 +6°C° 0.1 mm 2 mps 723 mmHg 80%
    02:00 +5°C° 0.1 mm 2 mps 723 mmHg 80%
    03:00 +6°C° 0.1 mm 1 mps 722 mmHg 80%
    04:00 +6°C° 0.1 mm 1 mps 722 mmHg 81%
    05:00 +6°C° 0.3 mm 1 mps 722 mmHg 82%
    06:00 +6°C° 0.3 mm 1 mps 723 mmHg 83%
    07:00 +6°C° 0.3 mm 1 mps 723 mmHg 84%
    08:00 +7°C° 0.1 mm 1 mps 723 mmHg 82%
    09:00 +7°C° 0.1 mm 1 mps 723 mmHg 80%
    10:00 +8°C° 0.1 mm 1 mps 723 mmHg 78%
    11:00 +8°C° 0 mm 1 mps 723 mmHg 75%
    12:00 +9°C° 0 mm 1 mps 723 mmHg 72%
    13:00 +9°C° 0 mm 1 mps 723 mmHg 69%
    14:00 +9°C° 0 mm 1 mps 724 mmHg 71%
    15:00 +9°C° 0 mm 1 mps 724 mmHg 72%
    16:00 +7°C° 0 mm 2 mps 724 mmHg 74%
    17:00 +6°C° 0 mm 2 mps 724 mmHg 75%
    18:00 +4°C° 0 mm 3 mps 724 mmHg 76%
    19:00 +3°C° 0 mm 3 mps 725 mmHg 77%
    20:00 +3°C° 0 mm 4 mps 724 mmHg 75%
    21:00 +3°C° 0 mm 4 mps 724 mmHg 73%
    22:00 +2°C° 0 mm 5 mps 724 mmHg 70%
    23:00 +2°C° 0 mm 5 mps 724 mmHg 70%

    Day after tomorrow, 25 January, Friday

    Time Temperature Precipitation Wind Pressure Humidity
    00:00 +2°C° 0 mm 6 mps 723 mmHg 70%
    01:00 +2°C° 0 mm 6 mps 723 mmHg 69%
    02:00 +2°C° 0.3 mm 6 mps 723 mmHg 71%
    03:00 +2°C° 0.3 mm 6 mps 723 mmHg 72%
    04:00 +2°C° 0.3 mm 6 mps 722 mmHg 74%
    05:00 +2°C° 0.3 mm 5 mps 723 mmHg 75%
    06:00 +2°C° 0.3 mm 5 mps 723 mmHg 77%
    07:00 +1°C° 0.3 mm 4 mps 723 mmHg 78%
    08:00 +3°C° 0.4 mm 4 mps 724 mmHg 79%
    09:00 +3°C° 0.4 mm 4 mps 724 mmHg 79%
    10:00 +3°C° 0.4 mm 4 mps 724 mmHg 79%
    11:00 +3°C° 0.3 mm 4 mps 724 mmHg 78%
    12:00 +4°C° 0.3 mm 4 mps 724 mmHg 76%
    13:00 +4°C° 0.3 mm 4 mps 724 mmHg 75%
    14:00 +4°C° 0.1 mm 4 mps 724 mmHg 75%
    15:00 +4°C° 0.1 mm 4 mps 725 mmHg 75%
    16:00 +3°C° 0.1 mm 4 mps 725 mmHg 75%
    17:00 +3°C° 0.1 mm 4 mps 725 mmHg 75%
    18:00 +1°C° 0.1 mm 4 mps 726 mmHg 74%
    19:00 +1°C° 0.1 mm 4 mps 726 mmHg 74%
    20:00 +1°C° 0 mm 4 mps 726 mmHg 74%
    21:00 0°C° 0 mm 4 mps 727 mmHg 74%
    22:00 0°C° 0 mm 4 mps 727 mmHg 73%
    23:00 0°C° 0 mm 4 mps 727 mmHg 73%

    26 January, Saturday

    Time Temperature Precipitation Wind Pressure Humidity
    00:00 0°C° 0 mm 4 mps 727 mmHg 73%
    01:00 0°C° 0 mm 4 mps 727 mmHg 73%
    02:00 -1°C° 0 mm 4 mps 727 mmHg 73%
    03:00 -1°C° 0 mm 4 mps 727 mmHg 72%
    04:00 -1°C° 0 mm 4 mps 727 mmHg 72%
    05:00 -1°C° 0 mm 4 mps 728 mmHg 71%
    06:00 -1°C° 0 mm 4 mps 728 mmHg 71%
    07:00 -1°C° 0 mm 4 mps 729 mmHg 71%
    08:00 0°C° 0 mm 4 mps 729 mmHg 68%
    09:00 +1°C° 0 mm 4 mps 729 mmHg 65%
    10:00 +4°C° 0 mm 4 mps 730 mmHg 63%
    11:00 +4°C° 0 mm 4 mps 730 mmHg 62%
    12:00 +5°C° 0 mm 4 mps 730 mmHg 61%
    13:00 +6°C° 0 mm 4 mps 730 mmHg 60%
    14:00 +5°C° 0 mm 4 mps 730 mmHg 62%
    15:00 +5°C° 0 mm 4 mps 730 mmHg 64%
    16:00 +4°C° 0 mm 4 mps 730 mmHg 66%
    17:00 +3°C° 0 mm 4 mps 731 mmHg 68%
    18:00 +1°C° 0 mm 4 mps 731 mmHg 69%
    19:00 0°C° 0 mm 4 mps 732 mmHg 71%
    20:00 0°C° 0 mm 4 mps 732 mmHg 71%
    21:00 +1°C° 0 mm 3 mps 732 mmHg 71%
    22:00 0°C° 0 mm 3 mps 732 mmHg 71%
    23:00 0°C° 0 mm 3 mps 732 mmHg 71%

    27 January, Sunday

    Time Temperature Precipitation Wind Pressure Humidity
    00:00 0°C° 0 mm 3 mps 732 mmHg 71%
    01:00 0°C° 0 mm 3 mps 732 mmHg 71%
    02:00 0°C° 0 mm 3 mps 732 mmHg 71%
    03:00 0°C° 0 mm 3 mps 731 mmHg 70%
    04:00 0°C° 0 mm 3 mps 731 mmHg 70%
    05:00 +1°C° 0 mm 2 mps 731 mmHg 70%
    06:00 +1°C° 0 mm 2 mps 731 mmHg 69%
    07:00 +1°C° 0 mm 2 mps 731 mmHg 69%
    08:00 +2°C° 0 mm 2 mps 731 mmHg 64%
    09:00 +5°C° 0 mm 1 mps 731 mmHg 59%
    10:00 +6°C° 0 mm 1 mps 730 mmHg 55%
    11:00 +7°C° 0 mm 1 mps 730 mmHg 54%
    12:00 +7°C° 0 mm 1 mps 730 mmHg 53%
    13:00 +8°C° 0 mm 1 mps 729 mmHg 52%
    14:00 +7°C° 0 mm 1 mps 729 mmHg 57%
    15:00 +7°C° 0 mm 1 mps 729 mmHg 61%
    16:00 +6°C° 0 mm 1 mps 729 mmHg 66%
    17:00 +5°C° 0 mm 1 mps 729 mmHg 68%
    18:00 +4°C° 0 mm 1 mps 730 mmHg 69%
    19:00 +4°C° 0 mm 1 mps 730 mmHg 71%
    20:00 +3°C° 0 mm 1 mps 730 mmHg 71%
    21:00 +2°C° 0 mm 2 mps 730 mmHg 72%
    22:00 +2°C° 0 mm 2 mps 730 mmHg 72%
    23:00 +2°C° 0 mm 2 mps 730 mmHg 72%

    28 January, Monday

    Time Temperature Precipitation Wind Pressure Humidity
    00:00 +3°C° 0 mm 2 mps 730 mmHg 71%
    01:00 +3°C° 0 mm 2 mps 730 mmHg 71%
    02:00 +3°C° 0 mm 2 mps 729 mmHg 72%
    03:00 +3°C° 0 mm 2 mps 729 mmHg 74%
    04:00 +3°C° 0 mm 2 mps 728 mmHg 75%
    05:00 +3°C° 0.2 mm 2 mps 728 mmHg 75%
    06:00 +4°C° 0.2 mm 2 mps 728 mmHg 75%
    07:00 +4°C° 0.2 mm 2 mps 728 mmHg 76%
    08:00 +5°C° 0.9 mm 2 mps 728 mmHg 77%
    09:00 +5°C° 0.9 mm 2 mps 728 mmHg 78%
    10:00 +5°C° 0.9 mm 2 mps 728 mmHg 79%
    11:00 +6°C° 0.5 mm 2 mps 727 mmHg 78%
    12:00 +6°C° 0.5 mm 2 mps 727 mmHg 78%
    13:00 +7°C° 0.5 mm 2 mps 726 mmHg 77%
    14:00 +6°C° 1 mm 2 mps 726 mmHg 80%
    15:00 +6°C° 1 mm 2 mps 726 mmHg 82%
    16:00 +6°C° 1 mm 2 mps 726 mmHg 85%
    17:00 +5°C° 0.8 mm 2 mps 726 mmHg 85%
    18:00 +5°C° 0.8 mm 2 mps 726 mmHg 85%
    19:00 +4°C° 0.8 mm 3 mps 726 mmHg 85%
    20:00 +5°C° 1.5 mm 2 mps 727 mmHg 86%
    21:00 +5°C° 1.5 mm 2 mps 727 mmHg 88%
    22:00 +5°C° 1.5 mm 2 mps 727 mmHg 89%
    23:00 +5°C° 0.9 mm 2 mps 727 mmHg 89%
    Show more